QTR26L EGPH-EIDW

Flight info

Callsign QTR26L
Flight time 0h 39m
Altitude 24000
Route GOSAM P600 TRN DCT BLACA P620 NIMAT NIMAT3R
Aircraft A20N/M-SDE2E3FGHIRWXY/LB1

Departure

Time 2026-04-25 20:58
Airport Edinburgh Airport (EGPH)

Arrival

Time 2026-04-25 21:37
Airport Dublin Airport (EIDW)
Time Latitude Longitude Altitude Speed Heading
2026-04-25 20:28 55.94703 -3.36615 111 ft 0 kts 89°
2026-04-25 20:45 55.94703 -3.36622 111 ft 2 kts 89°
2026-04-25 20:45 55.94702 -3.36648 111 ft 2 kts 89°
2026-04-25 20:46 55.94702 -3.36675 110 ft 2 kts 89°
2026-04-25 20:46 55.94702 -3.36693 110 ft 1 kts 89°
2026-04-25 20:46 55.94698 -3.36718 110 ft 2 kts 51°
2026-04-25 20:46 55.94687 -3.36734 111 ft 2 kts 17°
2026-04-25 20:47 55.94678 -3.36737 111 ft 1 kts 358°
2026-04-25 20:47 55.94672 -3.36736 111 ft 0 kts 359°
2026-04-25 20:49 55.94678 -3.36737 111 ft 2 kts 359°
2026-04-25 20:49 55.94705 -3.36737 110 ft 5 kts
2026-04-25 20:49 55.94750 -3.36746 109 ft 7 kts 336°
2026-04-25 20:50 55.94809 -3.36779 108 ft 10 kts 360°
2026-04-25 20:50 55.94886 -3.36792 107 ft 12 kts 336°
2026-04-25 20:50 55.94920 -3.36919 105 ft 13 kts 248°
2026-04-25 20:50 55.94870 -3.37064 106 ft 13 kts 238°
2026-04-25 20:51 55.94821 -3.37206 107 ft 13 kts 239°
2026-04-25 20:51 55.94765 -3.37369 107 ft 16 kts 239°
2026-04-25 20:51 55.94700 -3.37564 108 ft 19 kts 239°
2026-04-25 20:51 55.94627 -3.37778 110 ft 20 kts 239°
2026-04-25 20:52 55.94556 -3.37986 112 ft 19 kts 239°
2026-04-25 20:52 55.94511 -3.38118 114 ft 17 kts 239°
2026-04-25 20:52 55.94429 -3.38360 117 ft 16 kts 240°
2026-04-25 20:52 55.94370 -3.38536 117 ft 16 kts 239°
2026-04-25 20:53 55.94311 -3.38708 119 ft 14 kts 239°
2026-04-25 20:53 55.94280 -3.38805 121 ft 6 kts 255°
2026-04-25 20:53 55.94301 -3.38879 121 ft 5 kts 326°
2026-04-25 20:53 55.94306 -3.38884 121 ft 0 kts 327°
2026-04-25 20:55 55.94307 -3.38885 121 ft 1 kts 327°
2026-04-25 20:56 55.94331 -3.38914 120 ft 7 kts 328°
2026-04-25 20:56 55.94395 -3.38966 119 ft 12 kts
2026-04-25 20:56 55.94442 -3.38896 118 ft 0 kts 60°
2026-04-25 20:57 55.94443 -3.38892 118 ft 2 kts 60°
2026-04-25 20:57 55.94558 -3.38547 114 ft 73 kts 59°
2026-04-25 20:57 55.94950 -3.37397 105 ft 143 kts 60°
2026-04-25 20:57 55.95510 -3.35755 617 ft 157 kts 62°
2026-04-25 20:58 55.96106 -3.34222 1366 ft 156 kts 52°
2026-04-25 20:58 55.96888 -3.32852 2083 ft 162 kts 47°
2026-04-25 20:58 55.97746 -3.31455 2633 ft 177 kts 46°
2026-04-25 20:58 55.98684 -3.29944 3139 ft 193 kts 46°
2026-04-25 20:59 55.99799 -3.28374 3577 ft 219 kts 29°
2026-04-25 20:59 56.01385 -3.27943 4053 ft 251 kts 353°
2026-04-25 20:59 56.02986 -3.29376 4682 ft 274 kts 317°
2026-04-25 20:59 56.03952 -3.32341 5397 ft 290 kts 284°
2026-04-25 21:00 56.03910 -3.35911 6296 ft 292 kts 251°
2026-04-25 21:00 56.03386 -3.38130 6940 ft 292 kts 243°
2026-04-25 21:00 56.01548 -3.45971 9036 ft 303 kts 251°
2026-04-25 21:01 56.00952 -3.49571 9926 ft 307 kts 254°
2026-04-25 21:01 56.00404 -3.53267 10694 ft 315 kts 255°
2026-04-25 21:01 55.99851 -3.57149 11191 ft 332 kts 255°
2026-04-25 21:01 55.99273 -3.61232 11705 ft 348 kts 255°
2026-04-25 21:02 55.98672 -3.65459 12460 ft 354 kts 254°
2026-04-25 21:02 55.98061 -3.69735 13298 ft 358 kts 254°
2026-04-25 21:02 55.97442 -3.74047 14114 ft 362 kts 254°
2026-04-25 21:02 55.96822 -3.78348 14890 ft 365 kts 254°
2026-04-25 21:03 55.96187 -3.82741 15649 ft 369 kts 254°
2026-04-25 21:03 55.95539 -3.87202 16403 ft 373 kts 254°
2026-04-25 21:03 55.95005 -3.90870 17004 ft 377 kts 254°
2026-04-25 21:03 55.94351 -3.95352 17715 ft 380 kts 254°
2026-04-25 21:04 55.93757 -3.99941 18408 ft 384 kts 257°
2026-04-25 21:04 55.93018 -4.04505 19057 ft 387 kts 243°
2026-04-25 21:04 55.91522 -4.08414 19700 ft 387 kts 223°
2026-04-25 21:04 55.89360 -4.11220 20354 ft 385 kts 203°
2026-04-25 21:05 55.86866 -4.12956 21018 ft 387 kts 200°
2026-04-25 21:05 55.84441 -4.15076 21630 ft 393 kts 207°
2026-04-25 21:05 55.82067 -4.17431 22253 ft 397 kts 207°
2026-04-25 21:05 55.79627 -4.19774 22870 ft 400 kts 206°
2026-04-25 21:06 55.77164 -4.22035 23469 ft 404 kts 205°
2026-04-25 21:06 55.74657 -4.24276 23903 ft 407 kts 204°
2026-04-25 21:06 55.72125 -4.26516 24030 ft 408 kts 204°
2026-04-25 21:06 55.70411 -4.28027 24031 ft 407 kts 204°
2026-04-25 21:07 55.66989 -4.31038 24038 ft 424 kts 204°
2026-04-25 21:07 55.64328 -4.33372 24037 ft 440 kts 204°
2026-04-25 21:07 55.61564 -4.35796 24034 ft 455 kts 205°
2026-04-25 21:07 55.58686 -4.38319 24030 ft 460 kts 205°
2026-04-25 21:08 55.55848 -4.40806 24031 ft 461 kts 205°
2026-04-25 21:08 55.52980 -4.43316 24033 ft 466 kts 205°
2026-04-25 21:08 55.50016 -4.45902 24027 ft 480 kts 205°
2026-04-25 21:08 55.47015 -4.48515 24024 ft 486 kts 205°
2026-04-25 21:09 55.40951 -4.53785 24010 ft 487 kts 205°
2026-04-25 21:09 55.37907 -4.56425 24020 ft 487 kts 205°
2026-04-25 21:09 55.34893 -4.59035 24029 ft 487 kts 205°
2026-04-25 21:10 55.31870 -4.61646 24034 ft 487 kts 205°
2026-04-25 21:10 55.28814 -4.64281 24038 ft 487 kts 205°
2026-04-25 21:10 55.25776 -4.66895 24038 ft 487 kts 204°
2026-04-25 21:10 55.22752 -4.69492 24039 ft 487 kts 204°
2026-04-25 21:11 55.19722 -4.72090 24039 ft 487 kts 204°
2026-04-25 21:11 55.16697 -4.74680 24037 ft 487 kts 204°
2026-04-25 21:11 55.13651 -4.77286 24036 ft 487 kts 204°
2026-04-25 21:11 55.10622 -4.79876 24035 ft 487 kts 204°
2026-04-25 21:12 55.07568 -4.82483 24035 ft 487 kts 204°
2026-04-25 21:12 55.04530 -4.85070 24035 ft 487 kts 204°
2026-04-25 21:12 55.01518 -4.87629 24036 ft 487 kts 204°
2026-04-25 21:12 54.99462 -4.89373 24037 ft 487 kts 204°
2026-04-25 21:13 54.95420 -4.92795 24037 ft 487 kts 204°
2026-04-25 21:13 54.92396 -4.95350 24035 ft 487 kts 204°
2026-04-25 21:13 54.89331 -4.97935 24033 ft 487 kts 204°
2026-04-25 21:13 54.86293 -5.00493 24031 ft 487 kts 204°
2026-04-25 21:14 54.83255 -5.03046 24028 ft 487 kts 204°
2026-04-25 21:14 54.80197 -5.05612 24025 ft 487 kts 204°
2026-04-25 21:14 54.77173 -5.08147 24022 ft 487 kts 204°
2026-04-25 21:14 54.74116 -5.10703 23897 ft 487 kts 204°
2026-04-25 21:15 54.71099 -5.13223 23647 ft 485 kts 204°
2026-04-25 21:15 54.68056 -5.15764 23394 ft 483 kts 204°
2026-04-25 21:15 54.65065 -5.18257 23145 ft 481 kts 204°
2026-04-25 21:15 54.62060 -5.20756 22894 ft 479 kts 204°
2026-04-25 21:16 54.59075 -5.23233 22645 ft 478 kts 204°
2026-04-25 21:16 54.56081 -5.25711 22394 ft 476 kts 204°
2026-04-25 21:16 54.53091 -5.28182 22143 ft 474 kts 204°
2026-04-25 21:16 54.50161 -5.30601 21896 ft 461 kts 204°
2026-04-25 21:17 54.47317 -5.32949 21643 ft 443 kts 204°
2026-04-25 21:17 54.44613 -5.35179 21395 ft 427 kts 204°
2026-04-25 21:17 54.41997 -5.37331 21146 ft 414 kts 204°
2026-04-25 21:17 54.39441 -5.39429 20895 ft 401 kts 204°
2026-04-25 21:18 54.36966 -5.41456 20643 ft 390 kts 204°
2026-04-25 21:18 54.34528 -5.43449 20391 ft 385 kts 204°
2026-04-25 21:18 54.32117 -5.45418 20142 ft 384 kts 204°
2026-04-25 21:18 54.29734 -5.47361 19895 ft 382 kts 204°
2026-04-25 21:19 54.27362 -5.49294 19649 ft 381 kts 204°
2026-04-25 21:19 54.24958 -5.51249 19398 ft 379 kts 204°
2026-04-25 21:19 54.22592 -5.53169 19151 ft 378 kts 204°
2026-04-25 21:19 54.20235 -5.55081 18904 ft 377 kts 204°
2026-04-25 21:20 54.17852 -5.57012 18654 ft 375 kts 204°
2026-04-25 21:20 54.16314 -5.58257 18492 ft 374 kts 204°
2026-04-25 21:20 54.13186 -5.60789 18162 ft 373 kts 204°
2026-04-25 21:20 54.10844 -5.62681 17914 ft 371 kts 204°
2026-04-25 21:21 54.08509 -5.64566 17666 ft 370 kts 203°
2026-04-25 21:21 54.06199 -5.66428 17419 ft 368 kts 202°
2026-04-25 21:21 54.03902 -5.68279 17175 ft 367 kts 202°
2026-04-25 21:21 54.01587 -5.70137 16925 ft 366 kts 202°
2026-04-25 21:22 53.99307 -5.71969 16681 ft 364 kts 202°
2026-04-25 21:22 53.96952 -5.73536 16434 ft 362 kts 198°
2026-04-25 21:22 53.94744 -5.75565 16170 ft 365 kts 218°
2026-04-25 21:22 53.93079 -5.78771 16032 ft 367 kts 232°
2026-04-25 21:23 53.91572 -5.82289 15905 ft 364 kts 232°
2026-04-25 21:23 53.90107 -5.85714 15212 ft 369 kts 232°
2026-04-25 21:23 53.88569 -5.89281 14378 ft 376 kts 232°
2026-04-25 21:23 53.87037 -5.92812 13784 ft 374 kts 232°
2026-04-25 21:24 53.85500 -5.96341 13259 ft 371 kts 232°
2026-04-25 21:24 53.83980 -5.99817 12738 ft 368 kts 231°
2026-04-25 21:24 53.82464 -6.03274 12210 ft 365 kts 231°
2026-04-25 21:24 53.80956 -6.06703 11683 ft 363 kts 231°
2026-04-25 21:25 53.79477 -6.10060 11139 ft 361 kts 231°
2026-04-25 21:25 53.77977 -6.13460 10567 ft 361 kts 231°
2026-04-25 21:25 53.76490 -6.16827 10271 ft 350 kts 231°
2026-04-25 21:25 53.75064 -6.20055 10125 ft 336 kts 231°
2026-04-25 21:26 53.73701 -6.23138 9977 ft 324 kts 231°
2026-04-25 21:26 53.72377 -6.26125 9697 ft 317 kts 231°
2026-04-25 21:26 53.71072 -6.29065 9391 ft 311 kts 231°
2026-04-25 21:26 53.69772 -6.31990 9055 ft 305 kts 231°
2026-04-25 21:27 53.68520 -6.34805 8585 ft 297 kts 231°
2026-04-25 21:27 53.67309 -6.37526 8191 ft 287 kts 231°
2026-04-25 21:27 53.66121 -6.40191 7839 ft 280 kts 231°
2026-04-25 21:27 53.64969 -6.42772 7511 ft 276 kts 231°
2026-04-25 21:28 53.63824 -6.45332 7190 ft 275 kts 231°
2026-04-25 21:28 53.62660 -6.47932 6866 ft 275 kts 231°
2026-04-25 21:28 53.61525 -6.50467 6552 ft 274 kts 231°
2026-04-25 21:28 53.60377 -6.53027 6235 ft 274 kts 231°
2026-04-25 21:29 53.59225 -6.55595 5917 ft 273 kts 231°
2026-04-25 21:29 53.58082 -6.58139 5602 ft 273 kts 231°
2026-04-25 21:29 53.56951 -6.60654 5343 ft 269 kts 231°
2026-04-25 21:29 53.55845 -6.63115 5252 ft 257 kts 231°
2026-04-25 21:30 53.54775 -6.65464 5164 ft 244 kts 225°
2026-04-25 21:30 53.53462 -6.67037 5001 ft 232 kts 191°
2026-04-25 21:30 53.51898 -6.67360 4770 ft 226 kts 179°
2026-04-25 21:30 53.50838 -6.67468 4600 ft 226 kts 179°
2026-04-25 21:31 53.48750 -6.67721 4255 ft 226 kts 180°
2026-04-25 21:31 53.47217 -6.67640 3959 ft 220 kts 158°
2026-04-25 21:31 53.45992 -6.66287 3733 ft 207 kts 123°
2026-04-25 21:31 53.45493 -6.64113 3645 ft 196 kts 95°
2026-04-25 21:32 53.45423 -6.61849 3783 ft 193 kts 92°
2026-04-25 21:32 53.45367 -6.59663 3686 ft 183 kts 93°
2026-04-25 21:32 53.45285 -6.57557 3814 ft 179 kts 94°
2026-04-25 21:32 53.45184 -6.55329 3543 ft 204 kts 94°
2026-04-25 21:33 53.45070 -6.52966 3174 ft 200 kts 95°
2026-04-25 21:33 53.44950 -6.50765 3096 ft 183 kts 94°
2026-04-25 21:33 53.44843 -6.48631 2838 ft 182 kts 94°
2026-04-25 21:33 53.44763 -6.46488 2851 ft 189 kts 92°
2026-04-25 21:34 53.44694 -6.44454 2830 ft 163 kts 94°
2026-04-25 21:34 53.44542 -6.42659 2647 ft 149 kts 98°
2026-04-25 21:34 53.44393 -6.40986 2307 ft 145 kts 96°
2026-04-25 21:34 53.44313 -6.39293 1849 ft 148 kts 94°
2026-04-25 21:35 53.44219 -6.37593 1454 ft 146 kts 94°
2026-04-25 21:35 53.44139 -6.35941 1166 ft 135 kts 95°
2026-04-25 21:35 53.44055 -6.34448 922 ft 125 kts 95°
2026-04-25 21:35 53.43980 -6.33059 701 ft 113 kts 95°
2026-04-25 21:36 53.43913 -6.31665 614 ft 136 kts 95°
2026-04-25 21:36 53.43830 -6.30188 520 ft 122 kts 96°
2026-04-25 21:36 53.43752 -6.28772 354 ft 120 kts 95°
2026-04-25 21:36 53.43679 -6.27409 243 ft 113 kts 96°
2026-04-25 21:37 53.43623 -6.26340 228 ft 67 kts 95°
2026-04-25 21:37 53.43597 -6.25902 223 ft 53 kts 96°
2026-04-25 21:37 53.43525 -6.25223 216 ft 32 kts 117°
2026-04-25 21:37 53.43464 -6.25039 216 ft 7 kts 121°
2026-04-25 21:38 53.43425 -6.24984 216 ft 7 kts 177°
2026-04-25 21:38 53.43384 -6.25036 216 ft 8 kts 256°
2026-04-25 21:38 53.43386 -6.25141 216 ft 8 kts 275°
2026-04-25 21:38 53.43392 -6.25246 216 ft 6 kts 275°
2026-04-25 21:39 53.43392 -6.25259 217 ft 1 kts 275°
2026-04-25 21:39 53.43395 -6.25310 217 ft 5 kts 275°
2026-04-25 21:39 53.43398 -6.25367 218 ft 4 kts 275°
2026-04-25 21:39 53.43401 -6.25423 219 ft 5 kts 275°
2026-04-25 21:40 53.43404 -6.25497 219 ft 7 kts 275°
2026-04-25 21:40 53.43409 -6.25581 221 ft 6 kts 275°
2026-04-25 21:40 53.43389 -6.25646 222 ft 6 kts 211°
2026-04-25 21:40 53.43342 -6.25641 222 ft 7 kts 156°
2026-04-25 21:41 53.43293 -6.25607 221 ft 2 kts 163°
2026-04-25 21:41 53.43268 -6.25595 221 ft 4 kts 164°
2026-04-25 21:41 53.43234 -6.25577 221 ft 5 kts 162°
2026-04-25 21:41 53.43227 -6.25574 221 ft 1 kts 162°
2026-04-25 21:42 53.43212 -6.25565 221 ft 1 kts 158°
2026-04-25 21:42 53.43205 -6.25560 221 ft 0 kts 157°
2026-04-25 21:47 53.43203 -6.25558 221 ft 1 kts 157°
2026-04-25 21:47 53.43189 -6.25543 220 ft 4 kts 130°
2026-04-25 21:48 53.43192 -6.25465 219 ft 9 kts 69°
2026-04-25 21:48 53.43219 -6.25354 219 ft 10 kts 69°
2026-04-25 21:48 53.43231 -6.25217 217 ft 13 kts 95°
2026-04-25 21:48 53.43223 -6.25103 216 ft 7 kts 116°
2026-04-25 21:49 53.43176 -6.25083 216 ft 7 kts 186°
2026-04-25 21:49 53.43137 -6.25090 216 ft 2 kts 185°
2026-04-25 21:49 53.43128 -6.25091 216 ft 0 kts 184°